TimeCOT,TemperatureF,Dew PointF,Humidity,Sea Level PressureIn,VisibilityMPH,Wind Direction,Wind SpeedMPH,Gust SpeedMPH,PrecipitationIn,Events,Conditions,WindDirDegrees,DateUTC
1:00 AM,79,76,88,29.90,9,ESE,4.5,,,,Haze,110,2012-11-19 06:00:00
1:00 AM,78.8,77.0,94,29.89,6.2,ESE,3.5,-,N/A,,Scattered Clouds,110,2012-11-19 06:00:00
2:00 AM,78.8,77.0,94,29.85,6.2,East,6.9,-,N/A,,Scattered Clouds,100,2012-11-19 07:00:00
3:00 AM,78.8,75.2,89,29.85,6.2,East,3.5,-,N/A,,Scattered Clouds,80,2012-11-19 08:00:00
4:00 AM,78,75,89,29.85,9,,2.2,,,,Haze,,2012-11-19 09:00:00
4:00 AM,78.8,75.2,89,29.84,6.2,Variable,2.3,-,N/A,,Scattered Clouds,0,2012-11-19 09:00:00
5:00 AM,78.8,75.2,89,29.85,6.2,Calm,Calm,-,N/A,,Partly Cloudy,0,2012-11-19 10:00:00
6:00 AM,78.8,77.0,94,29.85,6.2,Calm,Calm,-,N/A,,Scattered Clouds,0,2012-11-19 11:00:00
7:00 AM,78,75,89,29.89,7,SSE,4.5,,,,,160,2012-11-19 12:00:00
7:00 AM,78.8,75.2,89,29.88,6.2,SSE,4.6,-,N/A,,Scattered Clouds,160,2012-11-19 12:00:00
8:00 AM,80.6,75.2,84,29.91,6.2,Variable,2.3,-,N/A,,Scattered Clouds,0,2012-11-19 13:00:00
9:00 AM,86.0,75.2,70,29.89,6.2,Variable,2.3,-,N/A,,Partly Cloudy,0,2012-11-19 14:00:00
10:00 AM,86,77,68,29.90,7,East,2.2,,,,Haze,80,2012-11-19 15:00:00
10:00 AM,86.0,77.0,74,29.89,6.2,Variable,2.3,-,N/A,,Scattered Clouds,0,2012-11-19 15:00:00
11:00 AM,87.8,77.0,70,29.88,6.2,WNW,4.6,-,N/A,,Scattered Clouds,290,2012-11-19 16:00:00
12:00 PM,87.8,77.0,70,29.87,6.2,NW,6.9,-,N/A,,Partly Cloudy,310,2012-11-19 17:00:00
1:00 PM,88,77,62,29.81,7,NW,4.5,,,,Haze,310,2012-11-19 18:00:00
1:00 PM,87.8,77.0,70,29.80,6.2,NW,4.6,-,N/A,,Partly Cloudy,310,2012-11-19 18:00:00
2:00 PM,87.8,77.0,70,29.78,6.2,NW,5.8,-,N/A,,Partly Cloudy,310,2012-11-19 19:00:00
3:00 PM,86.0,77.0,74,29.77,6.2,NW,5.8,-,N/A,,Partly Cloudy,310,2012-11-19 20:00:00
4:00 PM,86.0,77.0,74,29.76,6.2,NW,5.8,-,N/A,,Partly Cloudy,310,2012-11-19 21:00:00
5:00 PM,84.2,77.0,79,29.76,6.2,NW,5.8,-,N/A,,Partly Cloudy,310,2012-11-19 22:00:00
6:00 PM,84.2,77.0,79,29.77,6.2,North,6.9,-,N/A,,Scattered Clouds,360,2012-11-19 23:00:00
7:00 PM,82.4,75.2,79,29.77,6.2,North,4.6,-,N/A,,Scattered Clouds,360,2012-11-20 00:00:00
8:00 PM,82.4,77.0,84,29.80,6.2,North,5.8,-,N/A,,Scattered Clouds,10,2012-11-20 01:00:00
9:00 PM,82.4,78.8,89,29.82,6.2,Variable,2.3,-,N/A,,Partly Cloudy,0,2012-11-20 02:00:00
10:00 PM,82.4,78.8,89,29.80,6.2,Calm,Calm,-,N/A,,Partly Cloudy,0,2012-11-20 03:00:00
11:00 PM,80.6,77.0,89,29.80,6.2,Calm,Calm,-,N/A,,Partly Cloudy,0,2012-11-20 04:00:00